�������l�o���
Date,Time,MP-1(��Sv/h),MP-2(��Sv/h),MP-3(��Sv/h),MP-4(��Sv/h),MP-5(��Sv/h),MP-6(��Sv/h),MP-7(��Sv/h),MP-8(��Sv/h),����,����(m/s),���J
2019/06/09,00:00,0.728,1.040,0.726,1.312,0.968,0.424,0.742,0.708,�k�k��,3.7,��
2019/06/09,00:10,0.730,1.037,0.725,1.315,0.967,0.426,0.742,0.708,�k�k��,3.5,��
2019/06/09,00:20,0.727,1.039,0.726,1.311,0.968,0.425,0.742,0.709,�k�k��,3.0,��
2019/06/09,00:30,0.728,1.039,0.726,1.312,0.967,0.426,0.742,0.708,�k,3.4,��
2019/06/09,00:40,0.727,1.039,0.729,1.315,0.969,0.425,0.743,0.709,�k,3.1,��
2019/06/09,00:50,0.728,1.040,0.725,1.315,0.968,0.427,0.746,0.707,�k�k��,2.8,��
2019/06/09,01:00,0.726,1.036,0.724,1.313,0.968,0.424,0.743,0.709,�k�k��,2.5,�L
2019/06/09,01:10,0.727,1.039,0.726,1.312,0.969,0.426,0.742,0.708,�k��,2.0,��
2019/06/09,01:20,0.729,1.039,0.724,1.314,0.970,0.425,0.744,0.708,�k�k��,1.5,��
2019/06/09,01:30,0.728,1.040,0.725,1.313,0.970,0.426,0.745,0.708,�k,2.0,�L
2019/06/09,01:40,0.729,1.040,0.726,1.313,0.970,0.426,0.744,0.707,�k�k��,2.2,�L
2019/06/09,01:50,0.728,1.041,0.727,1.312,0.970,0.425,0.744,0.709,�k,2.0,�L
2019/06/09,02:00,0.729,1.039,0.724,1.315,0.969,0.424,0.744,0.708,-,CALM,��
2019/06/09,02:10,0.727,1.039,0.726,1.313,0.969,0.425,0.744,0.709,�k�k��,3.7,��
2019/06/09,02:20,0.728,1.042,0.726,1.312,0.970,0.426,0.744,0.708,�k�k��,3.4,��
2019/06/09,02:30,0.727,1.041,0.725,1.313,0.969,0.426,0.744,0.708,�k�k��,3.3,��
2019/06/09,02:40,0.731,1.040,0.725,1.313,0.968,0.427,0.743,0.708,�k�k��,3.3,��
2019/06/09,02:50,0.728,1.040,0.727,1.315,0.971,0.425,0.743,0.707,�k�k��,3.2,��
2019/06/09,03:00,0.727,1.038,0.725,1.314,0.971,0.425,0.744,0.706,�k�k��,3.5,��
2019/06/09,03:10,0.727,1.039,0.724,1.312,0.971,0.426,0.745,0.708,�k�k��,3.8,��
2019/06/09,03:20,0.727,1.040,0.725,1.316,0.968,0.426,0.743,0.709,�k�k��,4.3,��
2019/06/09,03:30,0.729,1.041,0.725,1.314,0.968,0.426,0.742,0.707,�k�k��,4.6,��
2019/06/09,03:40,0.730,1.041,0.726,1.315,0.968,0.425,0.742,0.708,�k�k��,5.2,��
2019/06/09,03:50,0.728,1.040,0.726,1.313,0.969,0.424,0.744,0.709,�k�k��,6.3,��
2019/06/09,04:00,0.728,1.042,0.726,1.318,0.969,0.424,0.742,0.710,�k�k��,6.9,��
2019/06/09,04:10,0.729,1.041,0.725,1.316,0.970,0.426,0.743,0.708,�k�k��,7.1,��
2019/06/09,04:20,0.728,1.043,0.726,1.316,0.969,0.424,0.742,0.707,�k�k��,7.5,��
2019/06/09,04:30,0.729,1.041,0.727,1.317,0.970,0.425,0.743,0.709,�k�k��,7.7,��
2019/06/09,04:40,0.728,1.043,0.726,1.315,0.970,0.425,0.743,0.709,�k�k��,6.4,��
2019/06/09,04:50,0.729,1.040,0.727,1.315,0.968,0.425,0.743,0.710,�k�k��,6.2,��
2019/06/09,05:00,0.727,1.043,0.726,1.315,0.966,0.426,0.744,0.708,�k�k��,6.0,��
2019/06/09,05:10,0.728,1.042,0.726,1.316,0.969,0.424,0.744,0.708,�k�k��,5.1,��
2019/06/09,05:20,0.728,1.041,0.725,1.316,0.966,0.425,0.743,0.709,�k�k��,5.8,��
2019/06/09,05:30,0.727,1.042,0.726,1.316,0.968,0.425,0.744,0.707,�k�k��,5.1,��
2019/06/09,05:40,0.728,1.042,0.727,1.315,0.969,0.426,0.744,0.708,�k,5.7,��
2019/06/09,05:50,0.727,1.043,0.725,1.315,0.968,0.424,0.743,0.709,�k�k��,5.2,��
2019/06/09,06:00,0.728,1.043,0.726,1.317,0.970,0.425,0.744,0.709,�k,5.1,��
2019/06/09,06:10,0.730,1.044,0.727,1.317,0.969,0.425,0.744,0.710,�k,5.2,��
2019/06/09,06:20,0.731,1.042,0.727,1.316,0.970,0.425,0.742,0.708,�k,4.5,��
2019/06/09,06:30,0.729,1.043,0.728,1.315,0.971,0.424,0.743,0.709,�k,3.4,��
2019/06/09,06:40,0.729,1.043,0.726,1.318,0.968,0.426,0.743,0.708,�k�k��,4.6,��
2019/06/09,06:50,0.729,1.045,0.728,1.317,0.970,0.426,0.744,0.708,�k�k��,4.7,��
2019/06/09,07:00,0.729,1.044,0.726,1.316,0.970,0.424,0.744,0.708,�k,4.0,��
2019/06/09,07:10,0.729,1.046,0.727,1.319,0.970,0.423,0.744,0.708,�k,4.0,��
2019/06/09,07:20,0.728,1.043,0.730,1.316,0.972,0.424,0.744,0.708,�k,4.4,��
2019/06/09,07:30,0.726,1.040,0.729,1.319,0.973,0.424,0.745,0.708,�k�k��,3.5,��
2019/06/09,07:40,0.727,1.043,0.728,1.319,0.973,0.423,0.746,0.707,�k�k��,4.0,��
2019/06/09,07:50,0.729,1.043,0.729,1.316,0.974,0.424,0.744,0.708,�k�k��,4.3,��
2019/06/09,08:00,0.731,1.039,0.729,1.318,0.976,0.423,0.746,0.708,�k�k��,5.1,��
2019/06/09,08:10,0.730,1.048,0.730,1.320,0.974,0.422,0.744,0.707,�k�k��,5.8,��
2019/06/09,08:20,0.732,1.045,0.729,1.320,0.974,0.424,0.745,0.707,�k�k��,6.0,��
2019/06/09,08:30,0.731,1.044,0.728,1.322,0.975,0.423,0.745,0.707,�k,6.1,��
2019/06/09,08:40,0.729,1.045,0.727,1.322,0.973,0.423,0.745,0.708,�k�k��,6.1,��
2019/06/09,08:50,0.730,1.045,0.729,1.322,0.974,0.424,0.745,0.707,�k�k��,6.2,��
2019/06/09,09:00,0.729,1.047,0.729,1.323,0.975,0.425,0.746,0.708,�k�k��,5.6,��
2019/06/09,09:10,0.730,1.048,0.728,1.323,0.974,0.424,0.747,0.707,�k,5.0,��
2019/06/09,09:20,0.731,1.049,0.727,1.324,0.976,0.426,0.745,0.708,�k,5.1,��
2019/06/09,09:30,0.731,1.050,0.730,1.324,0.976,0.424,0.745,0.709,�k�k��,4.3,��
2019/06/09,09:40,0.731,1.049,0.730,1.321,0.978,0.424,0.746,0.707,�k�k��,4.2,��
2019/06/09,09:50,0.731,1.049,0.729,1.324,0.976,0.425,0.746,0.708,�k,5.9,��
2019/06/09,10:00,0.731,1.052,0.729,1.324,0.976,0.426,0.745,0.707,�k�k��,5.7,��
2019/06/09,10:10,0.731,1.051,0.729,1.324,0.980,0.425,0.747,0.707,�k�k��,4.8,��
2019/06/09,10:20,0.734,1.051,0.729,1.325,0.979,0.424,0.746,0.708,�k�k��,4.3,��
2019/06/09,10:30,0.733,1.052,0.730,1.325,0.977,0.425,0.746,0.707,�k�k��,5.1,��
2019/06/09,10:40,0.734,1.053,0.731,1.324,0.980,0.427,0.747,0.709,�k�k��,5.5,��
2019/06/09,10:50,0.732,1.054,0.730,1.325,0.980,0.425,0.747,0.707,�k�k��,5.5,��
2019/06/09,11:00,0.735,1.053,0.729,1.324,0.980,0.425,0.748,0.709,�k�k��,5.0,��
2019/06/09,11:10,0.734,1.054,0.731,1.323,0.980,0.424,0.748,0.708,�k�k��,5.3,��
2019/06/09,11:20,0.734,1.054,0.732,1.324,0.979,0.426,0.747,0.709,�k�k��,5.3,��
2019/06/09,11:30,0.732,1.055,0.732,1.322,0.980,0.425,0.748,0.710,�k�k��,5.4,��
2019/06/09,11:40,0.733,1.053,0.731,1.324,0.981,0.426,0.748,0.709,�k�k��,6.0,��
2019/06/09,11:50,0.734,1.056,0.732,1.323,0.982,0.426,0.747,0.710,�k�k��,5.7,��
2019/06/09,12:00,0.735,1.057,0.732,1.324,0.983,0.427,0.748,0.708,�k�k��,5.4,��
2019/06/09,12:10,0.736,1.055,0.732,1.323,0.982,0.427,0.747,0.710,�k�k��,6.1,��
2019/06/09,12:20,0.735,1.058,0.732,1.326,0.982,0.427,0.748,0.709,�k�k��,5.7,��
2019/06/09,12:30,0.736,1.057,0.732,1.326,0.986,0.428,0.748,0.709,�k�k��,5.5,��
2019/06/09,12:40,0.737,1.058,0.734,1.326,0.985,0.427,0.747,0.709,�k�k��,6.3,��
2019/06/09,12:50,0.734,1.059,0.734,1.324,0.984,0.425,0.746,0.708,�k�k��,6.4,��
2019/06/09,13:00,0.735,1.058,0.731,1.323,0.985,0.428,0.746,0.710,�k�k��,6.6,��
2019/06/09,13:10,0.735,1.059,0.731,1.326,0.982,0.427,0.746,0.709,�k�k��,5.8,��
2019/06/09,13:20,0.735,1.059,0.733,1.328,0.986,0.425,0.747,0.708,�k�k��,6.1,��
2019/06/09,13:30,0.738,1.059,0.734,1.326,0.983,0.428,0.749,0.710,�k�k��,6.1,��
2019/06/09,13:40,0.736,1.059,0.732,1.328,0.986,0.426,0.748,0.708,�k�k��,5.9,��
2019/06/09,13:50,0.736,1.060,0.733,1.328,0.985,0.428,0.750,0.709,�k�k��,6.1,��
2019/06/09,14:00,0.736,1.064,0.733,1.328,0.984,0.426,0.747,0.710,�k�k��,5.0,��
2019/06/09,14:10,0.735,1.062,0.733,1.327,0.984,0.426,0.748,0.709,�k�k��,5.2,��
2019/06/09,14:20,0.739,1.061,0.734,1.328,0.984,0.428,0.748,0.708,�k�k��,4.7,��
2019/06/09,14:30,0.736,1.061,0.734,1.326,0.985,0.427,0.748,0.710,�k�k��,5.4,��
2019/06/09,14:40,0.734,1.062,0.734,1.327,0.987,0.427,0.748,0.709,�k�k��,4.7,��
2019/06/09,14:50,0.734,1.062,0.731,1.329,0.986,0.426,0.750,0.709,�k�k��,4.4,��
2019/06/09,15:00,0.737,1.061,0.732,1.330,0.986,0.427,0.748,0.710,�k�k��,4.0,��
2019/06/09,15:10,0.735,1.064,0.733,1.331,0.986,0.428,0.748,0.709,�k�k��,4.0,��
2019/06/09,15:20,0.738,1.061,0.732,1.330,0.987,0.427,0.748,0.709,�k�k��,3.4,��
2019/06/09,15:30,0.736,1.061,0.733,1.331,0.986,0.426,0.749,0.710,�k�k��,3.9,��
2019/06/09,15:40,0.737,1.062,0.735,1.333,0.986,0.426,0.750,0.708,�k�k��,3.6,��
2019/06/09,15:50,0.735,1.062,0.734,1.332,0.986,0.427,0.748,0.711,�k�k��,3.4,��
2019/06/09,16:00,0.736,1.061,0.735,1.331,0.987,0.426,0.749,0.710,�k,2.8,��
2019/06/09,16:10,0.737,1.063,0.737,1.330,0.987,0.427,0.748,0.711,�k,3.4,��
2019/06/09,16:20,0.733,1.062,0.736,1.331,0.988,0.428,0.748,0.710,�k,4.8,��
2019/06/09,16:30,0.736,1.063,0.738,1.330,0.988,0.427,0.748,0.710,�k�k��,4.9,��
2019/06/09,16:40,0.738,1.063,0.737,1.331,0.989,0.428,0.749,0.711,�k�k��,3.5,��
2019/06/09,16:50,0.736,1.065,0.738,1.331,0.988,0.429,0.749,0.711,�k,3.3,��
2019/06/09,17:00,0.737,1.063,0.737,1.333,0.987,0.428,0.748,0.710,�k,2.6,��
2019/06/09,17:10,0.737,1.061,0.737,1.334,0.989,0.428,0.748,0.710,�k�k��,3.3,��
2019/06/09,17:20,0.738,1.065,0.736,1.332,0.989,0.429,0.748,0.711,�k�k��,4.4,��
2019/06/09,17:30,0.736,1.065,0.736,1.333,0.985,0.427,0.749,0.712,�k�k��,4.4,��
2019/06/09,17:40,0.737,1.064,0.739,1.331,0.986,0.429,0.750,0.710,�k,4.6,��
2019/06/09,17:50,0.737,1.063,0.738,1.332,0.988,0.428,0.748,0.711,�k�k��,4.1,��
2019/06/09,18:00,0.737,1.065,0.739,1.334,0.987,0.426,0.749,0.710,�k,3.8,��
2019/06/09,18:10,0.737,1.066,0.739,1.333,0.990,0.428,0.749,0.710,�k�k��,4.7,��
2019/06/09,18:20,0.740,1.064,0.738,1.334,0.990,0.430,0.747,0.710,�k,4.4,��
2019/06/09,18:30,0.740,1.065,0.737,1.333,0.987,0.429,0.749,0.710,�k,3.4,��
2019/06/09,18:40,0.740,1.066,0.738,1.333,0.989,0.428,0.748,0.712,�k,3.5,��
2019/06/09,18:50,0.740,1.067,0.737,1.335,0.990,0.429,0.749,0.713,�k,3.2,��
2019/06/09,19:00,0.739,1.066,0.739,1.334,0.989,0.427,0.747,0.713,�k,3.3,��
2019/06/09,19:10,0.741,1.066,0.738,1.333,0.991,0.428,0.746,0.714,�k,3.3,��
2019/06/09,19:20,0.738,1.067,0.737,1.331,0.990,0.431,0.748,0.714,�k�k��,3.2,��
2019/06/09,19:30,0.740,1.068,0.737,1.333,0.990,0.428,0.748,0.712,�k,4.0,��
2019/06/09,19:40,0.740,1.066,0.737,1.331,0.989,0.430,0.748,0.713,�k,3.7,��
2019/06/09,19:50,0.738,1.067,0.736,1.335,0.988,0.428,0.750,0.713,�k,4.1,��
2019/06/09,20:00,0.738,1.066,0.737,1.333,0.990,0.427,0.749,0.712,�k,3.8,��
2019/06/09,20:10,0.740,1.066,0.737,1.334,0.990,0.429,0.749,0.713,�k�k��,4.4,��
2019/06/09,20:20,0.738,1.067,0.738,1.333,0.990,0.428,0.749,0.713,�k�k��,5.2,��
2019/06/09,20:30,0.739,1.065,0.739,1.334,0.990,0.429,0.749,0.713,�k�k��,4.5,��
2019/06/09,20:40,0.740,1.067,0.738,1.334,0.991,0.428,0.750,0.713,�k�k��,4.6,��
2019/06/09,20:50,0.739,1.066,0.738,1.334,0.990,0.429,0.748,0.713,�k�k��,5.4,��
2019/06/09,21:00,0.739,1.064,0.737,1.331,0.989,0.429,0.748,0.713,�k�k��,4.9,��
2019/06/09,21:10,0.740,1.066,0.736,1.335,0.989,0.429,0.748,0.714,�k�k��,4.4,��
2019/06/09,21:20,0.738,1.066,0.736,1.331,0.990,0.429,0.749,0.713,�k�k��,5.3,��
2019/06/09,21:30,0.738,1.065,0.736,1.334,0.991,0.428,0.747,0.713,�k�k��,5.6,��
2019/06/09,21:40,0.739,1.069,0.738,1.333,0.990,0.429,0.749,0.714,�k�k��,4.9,��
2019/06/09,21:50,0.739,1.067,0.739,1.335,0.990,0.428,0.747,0.714,�k�k��,4.7,��
2019/06/09,22:00,0.741,1.067,0.737,1.334,0.987,0.428,0.749,0.713,�k�k��,4.6,��
2019/06/09,22:10,0.740,1.068,0.736,1.337,0.992,0.427,0.748,0.714,�k�k��,5.6,��
2019/06/09,22:20,0.740,1.066,0.738,1.332,0.990,0.428,0.750,0.714,�k�k��,5.5,��
2019/06/09,22:30,0.739,1.066,0.739,1.331,0.993,0.428,0.749,0.714,�k�k��,5.6,��
2019/06/09,22:40,0.740,1.067,0.739,1.332,0.989,0.428,0.749,0.713,�k�k��,5.3,��
2019/06/09,22:50,0.739,1.066,0.739,1.331,0.991,0.429,0.748,0.713,�k,5.7,��
2019/06/09,23:00,0.738,1.065,0.737,1.332,0.991,0.429,0.748,0.714,�k�k��,6.2,�L
2019/06/09,23:10,0.740,1.066,0.740,1.332,0.992,0.428,0.747,0.714,�k�k��,5.3,�L
2019/06/09,23:20,0.740,1.064,0.738,1.334,0.991,0.429,0.750,0.715,�k�k��,4.9,�L
2019/06/09,23:30,0.739,1.065,0.739,1.335,0.991,0.429,0.749,0.714,�k�k��,5.1,�L
2019/06/09,23:40,0.738,1.061,0.737,1.332,0.988,0.430,0.749,0.713,�k�k��,5.8,�L
2019/06/09,23:50,0.739,1.060,0.736,1.334,0.989,0.430,0.749,0.713,�k�k��,5.3,�L
